Regional Weather Roundup
Issued by NWS Jackson, KY

Home | Current Version | Previous Version | Graphics & Text | Print | Product List | Glossary Off
Versions: 1 2 3 4 5 6 7 8 9 10 11 12 13 14 15 16 17 18 19 20 21 22 23 24 25 26 27

000
ASUS43 KJKL 191210
RWRJKL

EAST KENTUCKY HOURLY WEATHER ROUNDUP
NATIONAL WEATHER SERVICE JACKSON KY
700 AM EST SUN FEB 19 2017

NOTE: "FAIR" INDICATES FEW OR NO CLOUDS BELOW 12,000 FEET WITH
NO SIGNIFICANT WEATHER AND/OR OBSTRUCTIONS TO VISIBILITY.

* THESE REPORTS ARE NOT UNDER NWS QUALITY CONTROL AND MAY NOT
  REPORT WEATHER SUCH AS PRECIPITATION AND FOG.

KYZ079-080-083-085-087-088-110-112-115-119-120-191300
...EASTERN KENTUCKY...

CITY           SKY/WX    TMP DP  RH WIND       PRES   REMARKS
JACKSON        CLOUDY    47  44  90 CALM      30.04R
6HR MIN TEMP:  46; 6HR MAX TEMP:  47;

LONDON         CLOUDY    46  44  93 CALM      30.05R FOG
6HR MIN TEMP:  46; 6HR MAX TEMP:  47;

SOMERSET*      CLOUDY    43  43 100 CALM      30.07R FOG
MONTICELLO*    CLOUDY    47  46  97 NE8       30.06S
6HR MIN TEMP:  44; 6HR MAX TEMP:  49;

WILLIAMSBURG*  CLOUDY    45  45 100 S3        30.05R
MIDDLESBORO*   DRIZZLE   47  47 100 CALM      30.06R
6HR MIN TEMP:  46; 6HR MAX TEMP:  47;

HARLAN APT*    CLOUDY    46  45  93 CALM      30.05R
PIKE CO APT*   CLOUDY    46  46 100 CALM      30.04R FOG
BIG SANDY APT* DRIZZLE   47  47 100 CALM      30.05R
6HR MIN TEMP:  47; 6HR MAX TEMP:  48;

MOREHEAD APT*  CLOUDY    48  45  87 SW5       30.06R
ASHLAND*       CLOUDY    46  45  93 CALM      30.02R
$$

KYZ035-036-041-042-044-050-067-078-099-191300
...CENTRAL KENTUCKY...

CITY           SKY/WX    TMP DP  RH WIND       PRES   REMARKS
MT STERLING*   CLOUDY    46  45  93 W3        30.06R FOG
FLEMING/MASON* CLOUDY    46  46  99 W7        30.05R FOG
DANVILLE*      CLOUDY    43  43 100 CALM      30.06R FOG
LEXINGTON      CLOUDY    48  45  89 W7        30.05R
6HR MIN TEMP:  46; 6HR MAX TEMP:  48; 6HR PCP:  0.01;

FRANKFORT      CLOUDY    49  45  86 SW5       30.03R FOG
6HR MIN TEMP:  48; 6HR MAX TEMP:  49;

LOUISVILLE     CLOUDY    51  48  89 CALM      30.04R FOG
6HR MIN TEMP:  50; 6HR MAX TEMP:  51;

LEBANON*       CLOUDY    46  46 100 CALM      30.05R FOG
GLASGOW*       CLOUDY   N/A N/A N/A CALM      30.04R HAZE
BOWLING GREEN  CLOUDY    47  45  93 CALM      30.05R FOG
6HR MIN TEMP:  43; 6HR MAX TEMP:  49;

$$

KYZ091>093-OHZ055-061-077-WVZ005-015-034-035-042-191300
...SOUTHERN OHIO/WEST VIRGINIA...

CITY           SKY/WX    TMP DP  RH WIND       PRES   REMARKS
COVINGTON      CLOUDY    48  46  93 W6        30.01S
COLUMBUS       CLOUDY    44  42  93 S5        29.98R FOG
DAYTON         CLOUDY    44  44 100 W7        30.00R FOG
WILMINGTON     CLOUDY    45  44  97 SW9       29.99R FOG
HUNTINGTON     CLOUDY    48  45  89 SW6       30.03R
CHARLESTON     CLOUDY    47  45  93 W5        30.02R FOG
PINEVILLE*     CLOUDY    47  42  84 MISG      30.06R HAZE
BECKLEY        CLOUDY    44  42  93 W8        29.99R
BLUEFIELD      CLOUDY    41  40  96 NW9       30.00R FOG
LOGAN CO APT*  CLOUDY    46  46 100 W5        30.02R FOG
$$

VAZ002-007-008-TNZ017-027-036-066-071-191300
...SOUTHWEST VIRGINIA/EAST TENNESSEE...

CITY           SKY/WX    TMP DP  RH WIND       PRES   REMARKS
WISE*          CLOUDY    45  45 100 CALM      30.04R
JONESVILLE*    CLOUDY    46  46 100 CALM      30.07R FOG
ABINGDON*      CLOUDY    47  47 100 W3        30.02R FOG
BRISTOL        CLOUDY    48  46  93 CALM      30.04R FOG
MORRISTOWN*    CLOUDY    48  48 100 NW3       30.04R FOG
SEVIERVILLE*   CLOUDY    48  46  93 CALM      30.05R
KNOXVILLE      CLOUDY    50  47  89 CALM      30.04R FOG
LAFOLLETTE*    CLOUDY    48  48 100 CALM      30.08R FOG
OAK RIDGE      FOG       50  49  96 CALM      30.06R VSB 1/2
CROSSVILLE     CLOUDY    48  46  93 W3        30.05R FOG
NASHVILLE      PTCLDY    46  44  93 S5        30.04S FOG
$$

...KEY TO REMARKS...
VSB - VISIBILITY IN MILES
WCI - WIND CHILL INDEX
HX  - HEAT INDEX

$$




USA.gov is the U.S. government's official web portal to all federal, state and local government web resources and services.